This is the latest recevied weather packets stored in our database for station/object KD8BMB. If no packets are shown the sender has not sent any weather packets the latest 10 day(s).
| Time | Temp. | Humidity | Pressure | Rain* | Wind** | Luminosity | Snow |
|---|---|---|---|---|---|---|---|
| 1777499379 | 8.89° C | 82% | 1011.2 hPa | 0 mm | - | 157 W/m² | - |
| 1777499078 | 9.44° C | 82% | 1011.3 hPa | 0 mm | - | 176 W/m² | - |
| 1777498773 | 9.44° C | 83% | 1011.1 hPa | 0 mm | - | 174 W/m² | - |
| 1777498470 | 9.44° C | 82% | 1011.2 hPa | 0 mm | - | 184 W/m² | - |
| 1777498166 | 9.44° C | 82% | 1011.2 hPa | 0 mm | - | 229 W/m² | - |
| 1777497864 | 8.89° C | 83% | 1010.9 hPa | 0 mm | - | 195 W/m² | - |
| 1777497560 | 9.44° C | 83% | 1011.1 hPa | 0 mm | - | 165 W/m² | - |
| 1777497256 | 9.44° C | 84% | 1011.1 hPa | 0 mm | - | 134 W/m² | - |
| 1777496953 | 9.44° C | 83% | 1011.2 hPa | 0 mm | - | 116 W/m² | - |
| 1777496650 | 9.44° C | 83% | 1011.2 hPa | 0 mm | - | 134 W/m² | - |
| 1777496346 | 9.44° C | 83% | 1011 hPa | 0 mm | - | 154 W/m² | - |
| 1777496043 | 9.44° C | 85% | 1011.1 hPa | 0 mm | - | 129 W/m² | - |
| 1777495738 | 9.44° C | 85% | 1011.2 hPa | 0 mm | - | 115 W/m² | - |
| 1777495435 | 9.44° C | 83% | 1011.1 hPa | 0 mm | - | 102 W/m² | - |
| 1777495131 | 10° C | 84% | 1011.3 hPa | 0 mm | - | 111 W/m² | - |
| 1777494828 | 10° C | 84% | 1011.1 hPa | 0 mm | - | 107 W/m² | - |
| 1777494525 | 10° C | 84% | 1011.3 hPa | 0 mm | - | 122 W/m² | - |
| 1777494223 | 10° C | 84% | 1011.1 hPa | 1.27 mm | - | 139 W/m² | - |
| 1777493919 | 10° C | 83% | 1011.2 hPa | 1.27 mm | - | 89 W/m² | - |
| 1777493618 | 10° C | 82% | 1011.1 hPa | 1.27 mm | - | 83 W/m² | - |
| 1777493315 | 10.56° C | 81% | 1011.2 hPa | 0 mm | - | 117 W/m² | - |
| 1777493011 | 10.56° C | 79% | 1011 hPa | 0 mm | - | 106 W/m² | - |
| 1777492708 | 10.56° C | 80% | 1011.1 hPa | 0 mm | - | 161 W/m² | - |
| 1777492408 | 10.56° C | 79% | 1010.7 hPa | 0 mm | - | 145 W/m² | - |
| 1777492106 | 10.56° C | 80% | 1011.2 hPa | 0 mm | - | 135 W/m² | - |
* Rain latest hour (hover to see other rain measurements)
** Current wind speed in m/s (hover to see current wind gust speed)